Simultaneous Nadir Overpasses (SNOs) Predictions

Prediction of SNOs between GOES-16 and TERRA Satellite Orbit:

Table of predicted SNOs for the next 14.0 days since TLE Epoch: 4/23/2022
Index Date Time (GOES-16) GOES-16 Lat,Lon TERRA Lat,Lon Distance(km) Time Diff (sec)
1 04/23/2022 15:11:11 0.06, -75.23 -0.55, -72.39 323.00 80
2 04/24/2022 03:32:35 -0.05, -75.20 -0.53, -77.59 270.23 80
3 04/26/2022 03:17:40 -0.05, -75.20 0.05, -74.62 65.27 80
4 04/28/2022 03:05:26 -0.05, -75.21 0.70, -71.67 401.79 80
5 04/28/2022 15:26:41 0.05, -75.23 0.38, -76.84 182.27 80
6 04/30/2022 15:17:06 0.05, -75.25 -0.22, -73.88 155.25 80
7 05/01/2022 03:38:29 -0.05, -75.23 -0.84, -79.08 437.01 80
8 05/02/2022 15:04:52 0.04, -75.26 -0.90, -70.93 493.13 80
9 05/03/2022 03:26:15 -0.04, -75.25 -0.22, -76.12 99.06 80
10 05/05/2022 03:11:20 -0.04, -75.27 0.41, -73.17 239.23 80
11 05/05/2022 15:32:34 0.03, -75.30 0.66, -78.33 344.64 80
